Flag for Gibraltar Weather past 2 weeks in Gibraltar, Gibraltar

Now
71 °F

Mild.


Feels Like: 66 °F
Forecast: 68 / 80 °F
Wind: 6 mph from East

Location: Gibraltar

Current Time: Aug 31, 2015 at 5:05:03 AM

Latest Report: Aug 31, 2015 at 12:00 AM


Visibility: 5 mi

Pressure: 30.02 "Hg

Humidity: 93%

Dew point: 69 °F

Location of GibraltarLocation

Historic Weather in Gibraltar — Graph

°F

Gibraltar temperature yesterday

Maximum temperature yesterday: 77 °F (at 5:00 PM)
Minimum temperature yesterday: 70 °F (at 8:00 AM)
Average temperature yesterday: 73 °F

Past Weeks' High & Low Weather Summary

 TemperatureHumidityPressure
High83 °F (Aug 25, 4:00 PM)100% (Aug 28, 11:00 AM)30.13 "Hg (Aug 28, 11:00 AM)
Low67 °F (Aug 20, 4:00 AM)31% (Aug 23, 4:00 PM)29.85 "Hg (Aug 17, 8:00 PM)
Average73 °F76%30.00 "Hg
* Reported Midnight between Aug 15 and Aug 16 — Midnight between Aug 30 and Aug 31, Gibraltar, Weather by CustomWeather, © 2015

Note: Actual official high and low records may vary slightly from our data, if they occured in-between our weather recording intervals... More about our weather records

Advertising

Gibraltar weather history for previous 24 hours

 ConditionsComfort  
Time TempWeatherWind HumidityBarometerVisibility
12:00 AM
Mon, Aug 31
71 °FMild.6 mph93%30.02 "Hg5 mi
11:00 PM
Sun, Aug 30
71 °FLow clouds.5 mph95%30.02 "Hg5 mi
10:00 PM72 °FLow clouds.6 mph96%30.01 "Hg5 mi
9:00 PM73 °FLow clouds.8 mph91%29.98 "Hg4 mi
8:00 PM77 °FOvercast.8 mph85%29.98 "Hg5 mi
7:00 PM76 °FOvercast.12 mph87%30.00 "Hg5 mi
6:00 PM74 °FOvercast.8 mph87%30.02 "Hg5 mi
5:00 PM77 °FOvercast.12 mph84%30.02 "Hg5 mi
4:00 PM77 °FOvercast.18 mph84%29.98 "Hg6 mi
3:00 PM74 °FLight rain. Overcast.18 mph92%30.01 "Hg5 mi
2:00 PM73 °FOvercast.9 mph87%30.06 "Hg5 mi
1:00 PM73 °FOvercast.12 mph90%30.05 "Hg6 mi
12:00 PM72 °FOvercast.22 mph89%30.00 "Hg6 mi
11:00 AM72 °FOvercast.17 mph91%30.02 "Hg5 mi
10:00 AM72 °FOvercast.20 mph94%30.01 "Hg5 mi
9:00 AM71 °FOvercast.10 mph96%30.01 "Hg5 mi
8:00 AM70 °FPartly sunny.16 mph100%29.99 "Hg5 mi
7:00 AM71 °FMild.20 mph94%29.98 "Hg4 mi
6:00 AM72 °FMild.20 mph94%29.98 "Hg4 mi
5:00 AM73 °FMild.17 mph91%30.01 "Hg5 mi
Weather by CustomWeather, © 2015

See weather overviewHow to use our weather pages